Location: Unspecified
(0.0000°N, 0.0000°E)
Time: 05:10:26
(UTC+00:00)

Vanguard 2 Rocket - Pass Details

Date: 21 December 2018
Orbit: 554 x 3326 km, 32.9° (Epoch: 17 June)

Event Time Altitude Azimuth Distance (km) Brightness Sun altitude
Rises 21:13:55 0° 224° (SW) 7,317 12.3 -43.8°
Reaches altitude 10° 21:19:51 10° 216° (SW) 6,246 11.7 -45.0°
Maximum altitude 21:36:46 36° 156° (SSE) 3,766 9.9 -48.4°
Enters shadow 21:38:41 35° 144° (SE) 3,680 9.8 -48.8°
Drops below altitude 10° 21:48:33 10° 94° (E) 4,449 - -50.7°
Sets 21:51:52 0° 85° (E) 5,088 - -51.4°
